STARLINK-4555 (53572 NORAD) Tracking and Keplerian Element Data

This shows tracking and keplerian element data for the satellite.

Feedback or suggestion? Click here.




ElementValue
Catalog53572
NameSTARLINK-4555
Epoch Orbit130
Epoch Day324.91667824
Epoch Year2022
RAAN62.3149
Inclination53.217
Eccentricity0.0001056
Argument of Perigee82.6355
Mean Anonmoly101.7679
Mean Motion15.08834705
Decay Rate-0.00022347
L11 53572U 22101AX 22324.91667824 -.00022347 00000+0 -13906-2 0 9994
L22 53572 53.2170 62.3149 0001056 82.6355 101.7679 15.08834705 1304



Live tracking and technical data element details for STARLINK-4555 (NORAD 53572). STARLINK-4555 can be tracked NOW for your location showing map with azimuth and elevation plus other details from your city location.







IsCatalogInMostPopularTable: catalog: 53572, numindb: 4
Update: records affected: 1



GetName: 53572 STARLINK-4555

Hit Count: updated at: Tue, 29 Nov 2022 01:05:04 GMT